Regional Weather Roundup
Issued by NWS

Home | Current Version | Previous Version | Graphics & Text | Print | Product List | Glossary On
Versions: 1 2 3 4 5 6 7 8 9 10 11 12 13 14 15 16 17 18 19 20 21 22 23 24 25 26 27 28 29 30 31 32 33 34 35 36 37 38 39 40 41 42 43 44 45 46 47 48 49 50
214
ASUS43 KTOP 190408
RWRKS

WEATHER ROUNDUP FOR KANSAS
NATIONAL WEATHER SERVICE GOODLAND KS
1100 PM CDT WED OCT 18 2017

NOTE:  "FAIR" INDICATES FEW OR NO CLOUDS BELOW 12,000 FEET WITH NO
SIGNIFICANT WEATHER AND/OR OBSTRUCTIONS TO VISIBILITY.

KSZ001>006-013>018-027>032-041>047-190500-
NORTHWEST KANSAS

CITY           SKY/WX    TMP DP  RH WIND       PRES   REMARKS
GOODLAND       CLEAR     46  34  62 E8        30.11F
HAYS           CLEAR     52  40  63 N12       30.06S
HILL CITY      CLEAR     56  38  50 N9        30.09S
RUSSELL        CLEAR     56  42  59 N6        30.04R
$$

KSZ061>065-074>080-084>089-190500-
SOUTHWEST KANSAS

CITY           SKY/WX    TMP DP  RH WIND       PRES   REMARKS
DODGE CITY     CLEAR     57  46  66 S9        30.06R
ELKHART          N/A     56  41  57 SE9         N/A
GARDEN CITY    CLEAR     56  41  57 NE7       30.08R
GREAT BEND     CLEAR     57  47  69 W3        30.06R
PRATT          PTCLDY    55  46  71 S8        30.05S
$$

KSZ066>073-081>083-090>101-190500-
SOUTHEAST KANSAS

CITY           SKY/WX    TMP DP  RH WIND       PRES   REMARKS
CHANUTE        CLOUDY    60  49  66 S9        30.07R
COFFEYVILLE    PTCLDY    56  49  77 S3        30.08R
HUTCHINSON     CLOUDY    60  49  66 S3        30.04R
MEDICINE LODGE   N/A     63  47  55 SE7       30.04R
NEWTON         CLOUDY    58  48  69 S7        30.06R
PARSONS        CLOUDY    56  48  74 S3        30.09R
WICHITA INTL   CLOUDY    58  50  75 S9        30.04S
WICHITA JABRA  CLOUDY    63  49  60 S10       30.04S
WICHITA MCCONL CLOUDY    59  48  66 S10       30.05R
WINFIELD       CLEAR     60  51  72 S9        30.07R
$$

KSZ007>012-019>026-033>040-048>060-102>105-190500-
NORTHEAST KANSAS

CITY           SKY/WX    TMP DP  RH WIND       PRES   REMARKS
CONCORDIA      CLEAR     56  50  80 NW5       30.04R
EMPORIA        CLEAR     54  48  80 S7        30.05R
LAWRENCE       CLEAR     52  50  93 E3        30.05R
MANHATTAN      CLEAR     52  50  93 CALM      30.03S
MARYSVILLE     CLEAR     52  50  93 SE3       30.03S
OLATHE IND     CLEAR     57  51  80 S8        30.07R
OLATHE EXE     CLEAR     56  50  80 S6        30.06S
SALINA         CLEAR     58  52  80 CALM      30.03S
TOPEKA BILLARD CLEAR     53  50  89 CALM      30.03S
TOPEKA FORBES  CLEAR     55  50  83 S7        30.04S
$$




USA.gov is the U.S. government's official web portal to all federal, state and local government web resources and services.